Simultaneous Nadir Overpasses (SNOs) Predictions

Prediction of SNOs between METOP-B and NOAA-19 Satellite Orbit:

Table of predicted SNOs for the next 14.0 days since TLE Epoch: 12/10/2022
Index Date (METOP-B) Time (METOP-B) Lat,Lon (METOP-B) SZA (METOP-B ) Date (NOAA-19) Time (NOAA-19) Lat,Lon (NOAA-19) SZA (NOAA-19 ) Distance(km) Time Diff (sec)
1 12/12/2022 09:34:03 -80.91,-108.67 74.36 12/12/2022 09:33:06 -80.92,-108.55 74.37 2.15 57
2 12/12/2022 10:24:43 80.93, 58.93 105.68 12/12/2022 10:24:02 80.92, 58.80 105.64 2.60 41
3 12/12/2022 11:15:24 -80.92,-133.79 74.33 12/12/2022 11:15:05 -80.91,-133.83 74.35 1.24 19
4 12/12/2022 12:06:05 80.92, 33.45 105.66 12/12/2022 12:06:01 80.91, 33.52 105.67 1.29 4
5 12/12/2022 12:56:45 -80.92,-159.26 74.34 12/12/2022 12:57:03 -80.91,-159.11 74.33 2.83 18
6 12/12/2022 13:47:26 80.91, 7.98 105.65 12/12/2022 13:48:00 80.92, 7.86 105.66 2.04 34
7 12/12/2022 14:38:07 -80.91, 175.26 74.36 12/12/2022 14:39:03 -80.91, 175.25 74.33 0.49 56
8 12/12/2022 15:28:48 80.91, -17.50 105.64 12/12/2022 15:29:59 80.91, -17.42 105.68 1.66 71
9 12/23/2022 17:32:57 -80.91, 131.59 74.15 12/23/2022 17:31:53 -80.92, 131.77 74.15 3.26 64
10 12/23/2022 18:23:37 80.92, -60.86 105.88 12/23/2022 18:22:47 80.92, -60.80 105.86 1.31 50
11 12/23/2022 19:14:18 -80.92, 106.47 74.13 12/23/2022 19:13:52 -80.92, 106.49 74.14 0.78 26
12 12/23/2022 20:04:59 80.92, -86.34 105.86 12/23/2022 20:04:47 80.92, -86.46 105.85 2.06 12
13 12/23/2022 20:55:40 -80.92, 80.99 74.15 12/23/2022 20:55:52 -80.92, 80.83 74.15 2.80 12
14 12/23/2022 21:46:21 80.91,-111.83 105.84 12/23/2022 21:46:46 80.92,-111.75 105.86 1.62 25
15 12/23/2022 22:37:02 -80.91, 55.50 74.17 12/23/2022 22:37:51 -80.92, 55.54 74.14 1.03 49



Historial Predications of SNOs between METOP-B and NOAA-19
